Location: Newark
(7.0858°N, 171.3717°E)
Time: 15:00:13
(UTC+00:00)

Courier 1B Rocket - Pass Details

Date: 05 December 2020
Orbit: 920 x 1202 km, 28.2° (Epoch: 20 January)

Event Time Altitude Azimuth Distance (km) Brightness Sun altitude
Rises 00:23:30 0° 281° (W) 3,968 8.1 60.5°
Reaches altitude 10° 00:26:44 10° 271° (W) 2,965 7.7 60.5°
Maximum altitude 00:32:56 31° 212° (SSW) 1,774 7.5 60.5°
Drops below altitude 10° 00:38:48 10° 152° (SSE) 2,783 7.9 60.3°
Sets 00:41:45 0° 141° (SE) 3,689 8.3 60.2°
